Weather History for KCDD - October, 2012

Change the Weather History Date:

Friday, October 12, 2012

  Actual Average (KCQM) Record (KCQM)
Temperature  
Mean Temperature 30 °F -  
Max Temperature 44 °F 51 °F - (-1)
Min Temperature 17 °F 33 °F - (-1)
Degree Days  
Heating Degree Days 34    
Moisture  
Dew Point 20 °F    
Average Humidity 69    
Maximum Humidity 100    
Minimum Humidity 29    
Precipitation  
Precipitation 0.00 in - - ()
Sea Level Pressure  
Sea Level Pressure 30.26 in    
Wind  
Wind Speed 2 mph (South)    
Max Wind Speed 10 mph    
Max Gust Speed 18 mph    
Visibility 10 miles    
Events      
Averages and records for this station are not official NWS values.
T = Trace of Precipitation, MM = Missing Value Source: NWS Daily Summary

Daily Weather History Graph

Daily Weather History Graph

Search for Another Location

Airport or City:

Trip Planner

Search our weather history database for the weather conditions in past years. The results will help you decide how hot, cold, wet, or windy it might be!

Date:

Astronomy

Oct. 12, 2012 Rise Set
Actual Time 7:25 AM CDT 6:25 PM CDT
Civil Twilight 6:54 AM CDT 6:57 PM CDT
Nautical Twilight 6:18 AM CDT 7:33 PM CDT
Astronomical Twilight 5:42 AM CDT 8:09 PM CDT
Moon 3:56 AM CDT (10/12) 4:45 PM CDT (10/12)
Length of Visible Light 12h 02m
Length of Day
10h 59m
Waning Crescent, 10% of the Moon is Illuminated
Oct 12
Waning Crescent
Oct 15
New
Oct 21
First Quarter
Oct 29
Full
Nov 6
Last Quarter

Hourly Weather History & Observations

Time (CDT) Temp. Windchill Dew Point Humidity Pressure Visibility Wind Dir Wind Speed Gust Speed Precip Events Conditions
12:29 AM 23.0 °F - 21.2 °F 93% 30.35 in 10.0 mi Calm Calm - N/A   Clear
12:49 AM 23.0 °F - 21.2 °F 93% 30.35 in 10.0 mi Calm Calm - N/A   Clear
1:09 AM 21.2 °F - 21.2 °F 100% 30.36 in 10.0 mi Calm Calm - N/A   Clear
1:29 AM 21.2 °F - 19.4 °F 93% 30.37 in 10.0 mi Calm Calm - N/A   Clear
1:49 AM 21.2 °F - 19.4 °F 93% 30.37 in 10.0 mi Calm Calm - N/A   Clear
2:09 AM 19.4 °F - 17.6 °F 93% 30.37 in 10.0 mi Calm Calm - N/A   Clear
2:29 AM 19.4 °F - 17.6 °F 93% 30.37 in 10.0 mi Calm Calm - N/A   Clear
2:49 AM 19.4 °F - 17.6 °F 93% 30.38 in 10.0 mi Calm Calm - N/A   Clear
3:09 AM 19.4 °F - 17.6 °F 93% 30.38 in 10.0 mi Calm Calm - N/A   Clear
4:09 AM 17.6 °F - 17.6 °F 100% 30.39 in 10.0 mi Calm Calm - N/A   Clear
4:29 AM 17.6 °F - 15.8 °F 93% 30.39 in 10.0 mi Calm Calm - N/A   Clear
5:09 AM 17.6 °F - 17.6 °F 100% 30.39 in 10.0 mi Calm Calm - N/A   Clear
5:29 AM 17.6 °F - 15.8 °F 93% 30.38 in 10.0 mi Calm Calm - N/A   Clear
5:49 AM 17.6 °F - 15.8 °F 93% 30.38 in 10.0 mi Calm Calm - N/A   Clear
6:09 AM 17.6 °F - 15.8 °F 93% 30.39 in 10.0 mi Calm Calm - N/A   Clear
6:49 AM 17.6 °F - 15.8 °F 93% 30.39 in 10.0 mi Calm Calm - N/A   Clear
7:09 AM 17.6 °F - 15.8 °F 93% 30.39 in 10.0 mi Calm Calm - N/A   Clear
7:29 AM 17.6 °F - 15.8 °F 93% 30.39 in 10.0 mi Calm Calm - N/A   Clear
7:49 AM 17.6 °F - 15.8 °F 93% 30.39 in 10.0 mi Calm Calm - N/A   Clear
8:09 AM 19.4 °F - 17.6 °F 93% 30.40 in 10.0 mi Calm Calm - N/A   Clear
8:29 AM 21.2 °F - 19.4 °F 93% 30.39 in 10.0 mi Calm Calm - N/A   Clear
8:49 AM 23.0 °F - 21.2 °F 93% 30.39 in 10.0 mi Calm Calm - N/A   Clear
9:09 AM 26.6 °F - 24.8 °F 93% 30.39 in 10.0 mi Calm Calm - N/A   Clear
9:29 AM 28.4 °F 24.6 °F 26.6 °F 93% 30.38 in 10.0 mi South 3.5 mph - N/A   Clear
9:49 AM 30.2 °F - 28.4 °F 93% 30.38 in 10.0 mi Calm Calm - N/A   Clear
10:09 AM 33.8 °F 29.6 °F 32.0 °F 93% 30.37 in 10.0 mi South 4.6 mph - N/A   Clear
10:29 AM 33.8 °F 30.8 °F 32.0 °F 93% 30.36 in 10.0 mi SSE 3.5 mph - N/A   Clear
10:49 AM 35.6 °F 31.7 °F 33.8 °F 93% 30.36 in 10.0 mi SSE 4.6 mph - N/A   Clear
11:09 AM 35.6 °F 31.7 °F 33.8 °F 93% 30.35 in 10.0 mi South 4.6 mph - N/A   Clear
11:29 AM 37.4 °F 34.9 °F 33.8 °F 87% 30.34 in 10.0 mi SSE 3.5 mph - N/A   Clear
12:09 PM 39.2 °F - 32.0 °F 75% 30.32 in 10.0 mi Calm Calm - N/A   Clear
12:29 PM 37.4 °F 32.1 °F 30.2 °F 75% 30.31 in 10.0 mi South 6.9 mph - N/A   Clear
12:49 PM 39.2 °F 34.2 °F 28.4 °F 65% 30.30 in 10.0 mi SSE 6.9 mph - N/A   Clear
1:49 PM 44.6 °F 40.2 °F 17.6 °F 34% 30.27 in 10.0 mi SW 8.1 mph - N/A   Clear
2:49 PM 44.6 °F 39.7 °F 14.0 °F 29% 30.23 in 10.0 mi SSE 9.2 mph 18.4 mph N/A   Clear
3:29 PM 44.6 °F 39.7 °F 14.0 °F 29% 30.21 in 10.0 mi SSW 9.2 mph 16.1 mph N/A   Clear
3:49 PM 42.8 °F 38.6 °F 12.2 °F 29% 30.19 in 10.0 mi South 6.9 mph - N/A   Clear
4:09 PM 44.6 °F 40.7 °F 14.0 °F 29% 30.17 in 10.0 mi South 6.9 mph 16.1 mph N/A   Scattered Clouds
4:29 PM 42.8 °F 37.0 °F 14.0 °F 31% 30.15 in 10.0 mi South 10.4 mph - N/A   Mostly Cloudy
5:09 PM 42.8 °F 39.3 °F 17.6 °F 36% 30.14 in 10.0 mi South 5.8 mph 16.1 mph N/A   Overcast
5:49 PM 42.8 °F 40.1 °F 17.6 °F 36% 30.13 in 10.0 mi SSE 4.6 mph - N/A   Overcast
6:09 PM 42.8 °F 38.6 °F 17.6 °F 36% 30.12 in 10.0 mi South 6.9 mph - N/A   Overcast
6:29 PM 42.8 °F 38.6 °F 19.4 °F 39% 30.12 in 10.0 mi South 6.9 mph - N/A   Overcast
6:49 PM 42.8 °F 41.1 °F 19.4 °F 39% 30.11 in 10.0 mi SSE 3.5 mph - N/A   Overcast
7:09 PM 41.0 °F 39.0 °F 17.6 °F 39% 30.10 in 10.0 mi SSE 3.5 mph - N/A   Overcast
7:49 PM 41.0 °F 39.0 °F 19.4 °F 42% 30.09 in 10.0 mi SSE 3.5 mph - N/A   Overcast
8:09 PM 41.0 °F 37.1 °F 19.4 °F 42% 30.07 in 10.0 mi SSE 5.8 mph - N/A   Overcast
8:29 PM 41.0 °F 37.1 °F 19.4 °F 42% 30.06 in 10.0 mi South 5.8 mph - N/A   Overcast
9:09 PM 42.8 °F 37.0 °F 17.6 °F 36% 30.05 in 10.0 mi South 10.4 mph - N/A   Overcast
9:29 PM 42.8 °F 39.3 °F 15.8 °F 34% 30.04 in 10.0 mi SSE 5.8 mph - N/A   Overcast
9:49 PM 42.8 °F 38.6 °F 15.8 °F 34% 30.03 in 10.0 mi SSE 6.9 mph - N/A   Overcast
10:09 PM 42.8 °F 38.0 °F 14.0 °F 31% 30.03 in 10.0 mi South 8.1 mph - N/A   Overcast
10:49 PM 41.0 °F 34.7 °F 15.8 °F 36% 30.02 in 10.0 mi South 10.4 mph - N/A   Overcast
11:09 PM 41.0 °F 38.0 °F 17.6 °F 39% 30.01 in 10.0 mi South 4.6 mph - N/A   Overcast
11:29 PM 41.0 °F 36.4 °F 17.6 °F 39% 30.00 in 10.0 mi South 6.9 mph - N/A   Overcast
11:49 PM 41.0 °F - 19.4 °F 42% 30.00 in 10.0 mi Calm Calm - N/A   Overcast